Location: Fort Worth, Tx
(32.7431°N, 97.3695°W)
Time: 11:43:50
(UTC-04:00)

Courier 1B - Pass Details

Date: 23 February 2024
Orbit: 962 x 1208 km, 28.3° (Epoch: 24 April)

Event Time Altitude Azimuth Distance (km) Brightness Sun altitude
Exits shadow 06:19:48 37° 232° (SW) 1,508 8.1 -22.8°
Maximum altitude 06:21:35 45° 194° (SSW) 1,355 8.1 -22.4°
Drops below altitude 10° 06:28:13 10° 124° (SE) 2,889 10.7 -21.0°
Sets 06:31:09 0° 118° (ESE) 3,884 11.7 -20.4°
